Home > Weather > Wittenberg > Past weeks

Flag for Germany Weather for the Past 2 Weeks in Wittenberg, Saxony-Anhalt, Germany

Now
41 °F

Fog.


Feels Like: 41 °F
Forecast: 50 / 71 °F
Wind: No wind

Location: Holzdorf

Current Time: May 6, 2016 at 7:40:28 AM

Latest Report: May 6, 2016 at 6:20 AM


Visibility: N/A

Pressure: 30.18 "Hg

Humidity: 100%

Dew Point: 41 °F

Location of WittenbergLocation

Historic Weather in Wittenberg — Graph

°F

Wittenberg Temperature Yesterday

Maximum temperature yesterday: 66 °F (at 5:20 PM)
Minimum temperature yesterday: 41 °F (at 6:20 AM)
Average temperature yesterday: 54 °F

High & Low Weather Summary for the Past Weeks

 TemperatureHumidityPressure
High66 °F (Apr 30, 4:20 PM)100% (Apr 21, 5:20 AM)30.39 "Hg (Apr 21, 5:20 AM)
Low28 °F (Apr 21, 5:20 AM)28% (Apr 30, 3:20 PM)29.47 "Hg (Apr 26, 5:20 AM)
Average46 °F68%29.99 "Hg
* Reported Apr 21 5:20 AM — May 6 5:20 AM, Wittenberg, Weather by CustomWeather, © 2016

Note: Actual official high and low records may vary slightly from our data, if they occured in-between our weather recording intervals... More about our weather records

Advertising

Wittenberg Weather History for the Previous 24 Hours

Scroll right to see more
 ConditionsComfort  
Time TempWeatherWind HumidityBarometerVisibility
5:20 AM
Fri, May 6
39 °FFog.1 mph100%30.18 "HgN/A
4:20 AM41 °FFog.2 mph93%30.18 "HgN/A
3:20 AM41 °FFog.1 mph100%30.18 "HgN/A
2:20 AM43 °FFog.No wind93%30.21 "HgN/A
1:20 AM45 °FQuite cool.1 mph93%30.21 "HgN/A
12:20 AM46 °FCool.1 mph87%30.21 "HgN/A
11:20 PM
Thu, May 5
46 °FCool.1 mph87%30.21 "HgN/A
10:20 PM50 °FCool.1 mph76%30.24 "HgN/A
9:20 PM54 °FCool.2 mph72%30.24 "HgN/A
8:20 PM61 °FRefreshingly cool.3 mph55%30.24 "HgN/A
7:20 PM64 °FPassing clouds.7 mph49%30.24 "HgN/A
6:20 PM64 °FPassing clouds.8 mph46%30.24 "HgN/A
5:20 PM66 °FPassing clouds.8 mph43%30.27 "HgN/A
4:20 PM64 °FPassing clouds.6 mph46%30.27 "HgN/A
3:20 PM64 °FScattered clouds.7 mph43%30.30 "HgN/A
2:20 PM61 °FScattered clouds.14 mph48%30.33 "HgN/A
1:20 PM63 °FPassing clouds.6 mph42%30.33 "HgN/A
12:20 PM59 °FPassing clouds.6 mph45%30.36 "HgN/A
11:20 AM57 °FScattered clouds.5 mph48%30.36 "HgN/A
10:20 AM55 °FScattered clouds.3 mph51%30.39 "HgN/A
9:20 AM54 °FPassing clouds.5 mph54%30.39 "HgN/A
8:20 AM52 °FPassing clouds.5 mph62%30.39 "HgN/A
7:20 AM46 °FPassing clouds.2 mph76%30.39 "HgN/A
Weather by CustomWeather, © 2016

See weather overviewHow to use our weather pages